Weather in Borujerd

Iran     33°53′48″N   48°45′21″E
temp.,
°C
wind,
m/s
gust,
m/s
humid.,
%
clouds,
%
prec.,
mm/h
press.,
hPa
HPBL,
m
13 april, tue
tue1301:30+9s33550 0.0 101945
04:30+8sse22500 0.0 101821
07:30+9sse22520 0.0 101920
10:30+16s49290 0.0 10181701
13:30+19sw811170 0.0 10153354
16:30+19sw9111734 0.0 10133698
19:30+15wsw45290 0.0 101591
22:30+12ssw22350 0.1 101718
14 april, wed
wed1401:30+10s35560 0.0 101790
04:30+9sse33635 0.0 101744
07:30+9sse34680 0.0 101877
10:30+16s611335 0.0 10162282
13:30+18sw91124100 0.0 10132736
16:30+17sw7926100 0.0 10132531
19:30+14ssw3530100 0.0 101497
22:30+10sw22330 0.0 101617
15 april, thu
thu1501:30+8sw11330 0.0 101511
04:30+7s12311 0.0 101611
07:30+7sse22370 0.0 101716
10:30+14sse33210 0.0 1016778
13:30+19ssw45110 0.0 10132373
16:30+19sw65125 0.0 10112469
19:30+14sw34225 0.0 101376
22:30
16 april, fri
fri1601:30+9wsw22285 0.0 101412
04:30+7sw11320 0.0 101511
07:30+8sw11350 0.0 101611
10:30+14s12210 0.0 10151086
13:30+18wnw37130 0.0 10133170
16:30+19wnw461411 0.0 10123145
19:30+15wnw56245 0.0 1014169
22:30+12wnw33285 0.0 101620
17 april, sat
sat1701:30+10nnw2233100 0.0 101718
04:30+8nnw223847 0.0 101712
07:30+9n22406 0.0 101913
10:30+15n1124100 0.0 1018812
13:30+19nnw2215100 0.0 10151805
16:30+20nnw331491 0.0 10132575
19:30+17nnw222281 0.0 101417
22:30+14nw3322100 0.0 101619